ATLAS 5 CENTAUR DEB, 43958

Orbit data source: Space-Track

ATLAS 5 CENTAUR DEB, 43958 is space debris in HEO originally from a launch on Wed, 17 Sep 2014 UTC launched from the Air Force Eastern Test Range (AFETR). Debris objects in space refer to the collection of defunct objects orbiting the Earth. Examples of debris include non-operational satellites, rocket bodies, and fragments generated from explosions, collisions, or faulty payload assembly.

Loading next visibility...
Identifier
43958, 2014-055M
Orbit
HEO
Last TLE update
2 days ago
Origin
Flag of USUnited Launch Alliance/Lockheed Martin (US)
Manufacturer
Unknown
Mission
Spacecraft
Bus & Motor
Unknown
Mass
Unknown
Launch date (UTC)
2014-09-17 (11 years ago)
Launch vehicle
Unknown
Launch site
Air Force Eastern Test Range (AFETR)
Object type
Payload
Rocket body
Debris
Shape & HBR
Unknown
Radar Cross Section
Small (<0.1 m²)

Expand to show TLE details & history

TLE from 2 days ago
0 ATLAS 5 CENTAUR DEB
1 43958U 14055M   25180.12028319 -.00000047  00000-0  00000-0 0  9998
2 43958  19.8317 170.1633 4777364 119.3654 296.4899  1.89316167 47211
Epoch: 2025-06-29T02:53Z
TLE epoch observation values (Epoch: 2025-06-29T02:53:12.467Z)
Latitude
-0.00002°
Longitude
-150.61136°
Altitude
21,418.718 km
Speed
3.773 km/s
True Right ascension
11h 20m 33s
True Declination
0° 00' 00"
Sunlit
Object was in daylight at epoch
Visualization orbit readout
Latitude
-13.22147°
Longitude
168.5546°
Altitude
32,689.346 km
Speed
2.443 km/s
Apparent Right ascension
08h 07m 52s
Apparent Declination
-18° 42' 43"
Sunlit
Object is in daylight
Visualization observer readout
Local Sidereal Time
14:38:19
Azimuth
259.998° W
Elevation
-17.581°
Doppler factor
1
Orbital elements
Apogee altitude
34,413.51 km
Perigee altitude
8,038.502 km
Semi-major axis
27,604.143 km
Eccentricity
0.47774
Inclination
19.8317°
RAAN
170.1633°
Arg. of periapsis
119.3654°
True anomaly
Unknown
Mean anomaly
296.4899°
Eccentric anomaly
Unknown
Mean motion
0.47324 °/min
Orbital period
760.71 mins
BSTAR
0
Loading maneuver chart data...
Loading SW <> Apogee altitude chart data...

ATLAS 5 CENTAUR DEB Visibility forecast

Observer location: undefined°, undefined°

Span
Click to sort rows by Start time (UTC) header in descending order
Start Az.
Max El. time (UTC)
Max El. Az.
Max El.
End time (UTC)
End Az.
102 mins2025-07-01 06:52:05.548Z263.653° W2025-07-01 07:46:05.548Z194.252° SSW38.124°2025-07-01 08:34:05.548Z121.206° SE
|